TimeMDT,TemperatureF,Dew PointF,Humidity,Sea Level PressureIn,VisibilityMPH,Wind Direction,Wind SpeedMPH,Gust SpeedMPH,PrecipitationIn,Events,Conditions,WindDirDegrees,DateUTC
12:53 AM,36.0,19.9,52,30.06,10.0,North,9.2,-,N/A,,Clear,360,2013-10-17 06:53:00
1:53 AM,36.0,21.0,55,30.04,10.0,North,6.9,-,N/A,,Clear,350,2013-10-17 07:53:00
2:53 AM,35.1,21.0,57,30.04,10.0,NNW,8.1,-,N/A,,Clear,340,2013-10-17 08:53:00
3:53 AM,34.0,21.0,59,30.03,10.0,North,8.1,-,N/A,,Clear,350,2013-10-17 09:53:00
4:53 AM,32.0,21.0,64,30.04,10.0,WNW,4.6,-,N/A,,Clear,290,2013-10-17 10:53:00
5:53 AM,34.0,21.0,59,30.06,10.0,Calm,Calm,-,N/A,,Clear,0,2013-10-17 11:53:00
6:53 AM,30.9,21.0,67,30.10,10.0,NNW,5.8,-,N/A,,Clear,330,2013-10-17 12:53:00
7:53 AM,33.1,21.9,64,30.12,10.0,NNW,5.8,-,N/A,,Clear,340,2013-10-17 13:53:00
8:53 AM,41.0,23.0,49,30.10,10.0,North,6.9,-,N/A,,Clear,360,2013-10-17 14:53:00
9:53 AM,45.0,23.0,42,30.09,10.0,North,10.4,-,N/A,,Clear,360,2013-10-17 15:53:00
10:53 AM,48.9,21.9,35,30.07,10.0,North,8.1,-,N/A,,Clear,360,2013-10-17 16:53:00
11:53 AM,50.0,21.9,33,30.05,10.0,SW,9.2,-,N/A,,Clear,230,2013-10-17 17:53:00
12:53 PM,53.1,21.9,30,30.00,10.0,WSW,8.1,-,N/A,,Clear,250,2013-10-17 18:53:00
1:53 PM,55.0,19.0,24,29.96,10.0,Variable,3.5,-,N/A,,Clear,0,2013-10-17 19:53:00
2:53 PM,55.9,16.0,21,29.93,10.0,West,3.5,-,N/A,,Clear,280,2013-10-17 20:53:00
3:53 PM,59.0,14.0,17,29.89,10.0,Calm,Calm,-,N/A,,Clear,0,2013-10-17 21:53:00
4:53 PM,59.0,12.9,16,29.88,10.0,Calm,Calm,-,N/A,,Clear,0,2013-10-17 22:53:00
5:53 PM,57.9,15.1,19,29.88,10.0,WSW,10.4,-,N/A,,Clear,250,2013-10-17 23:53:00
6:53 PM,52.0,12.9,21,29.92,10.0,WSW,8.1,-,N/A,,Clear,250,2013-10-18 00:53:00
7:53 PM,46.9,16.0,29,29.95,10.0,WNW,6.9,-,N/A,,Clear,290,2013-10-18 01:53:00
8:53 PM,44.1,19.9,38,29.92,10.0,North,9.2,-,N/A,,Clear,10,2013-10-18 02:53:00
9:53 PM,41.0,19.9,43,29.93,10.0,NNE,8.1,-,N/A,,Clear,20,2013-10-18 03:53:00
10:53 PM,46.0,15.1,29,29.90,10.0,SW,4.6,-,N/A,,Clear,220,2013-10-18 04:53:00
11:53 PM,39.9,17.1,40,29.92,10.0,North,3.5,-,N/A,,Clear,350,2013-10-18 05:53:00